Weather History for CWZG - May, 2014

Change the Weather History Date:

Saturday, May 31, 2014

  Actual Average Record
Temperature  
Mean Temperature 48 °F -  
Max Temperature 66 °F - - ()
Min Temperature 29 °F - - ()
Degree Days  
Heating Degree Days 18    
Moisture  
Dew Point 30 °F    
Average Humidity 56    
Maximum Humidity 99    
Minimum Humidity 18    
Precipitation  
Precipitation 0.02 in - - ()
Sea Level Pressure  
Sea Level Pressure 30.05 in    
Wind  
Wind Speed 2 mph ()    
Max Wind Speed 8 mph    
Max Gust Speed -    
T = Trace of Precipitation, MM = Missing Value Source: Averaged Metar Reports

Daily Weather History Graph

Daily Weather History Graph

Search for Another Location

Airport or City:

Trip Planner

Search our weather history database for the weather conditions in past years. The results will help you decide how hot, cold, wet, or windy it might be!

Date:

Astronomy

May. 31, 2014 Rise Set
Actual Time 5:32 AM MDT 9:47 PM MDT
Civil Twilight 4:48 AM MDT 10:32 PM MDT
Nautical Twilight 3:43 AM MDT 11:37 PM MDT
Astronomical Twilight 2:12 AM MDT 1:07 AM MDT
Moon 8:24 AM MDT (5/31) 11:55 PM MDT (5/31)
Length of Visible Light 17h 44m
Length of Day
16h 14m
Waxing Crescent, 9% of the Moon is Illuminated
May 31
Waxing Crescent
Jun 5
First Quarter
Jun 12
Full
Jun 19
Last Quarter
Jun 27
New

Hourly Weather History & Observations

Time (MDT) Temp. Windchill Dew Point Humidity Pressure Visibility Wind Dir Wind Speed Gust Speed Precip Events Conditions
12:00 AM 39.7 °F - 34.2 °F 80% 30.12 in - Calm Calm - N/A   Unknown
1:00 AM 37.0 °F - 33.1 °F 86% 30.13 in - NNW 1.2 mph - N/A   Unknown
2:00 AM 34.9 °F - 31.8 °F 89% 30.13 in - WNW 1.2 mph - N/A   Unknown
3:00 AM 34.2 °F - 31.6 °F 90% 30.13 in - NW 1.2 mph - N/A   Unknown
4:00 AM 31.6 °F - 30.6 °F 96% 30.13 in - NE 1.2 mph - N/A   Unknown
5:00 AM 30.6 °F - 29.7 °F 96% 30.14 in - Calm Calm - N/A   Unknown
6:00 AM 29.8 °F - 29.5 °F 99% 30.14 in - Calm Calm - N/A   Unknown
7:00 AM 33.8 °F - 32.9 °F 96% 30.13 in - Calm Calm - 0.02 in   Unknown
8:00 AM 38.3 °F 34.8 °F 33.3 °F 82% 30.12 in - SW 4.6 mph - N/A   Unknown
9:00 AM 45.5 °F 43.2 °F 33.3 °F 62% 30.10 in - SW 4.6 mph - N/A   Unknown
10:00 AM 50.7 °F - 31.6 °F 48% 30.08 in - SW 3.5 mph - N/A   Unknown
11:00 AM 57.9 °F - 31.5 °F 37% 30.04 in - West 2.3 mph - N/A   Unknown
12:00 PM 60.6 °F - 25.7 °F 26% 30.03 in - NE 3.5 mph - N/A   Unknown
1:00 PM 61.7 °F - 23.4 °F 23% 30.01 in - East 3.5 mph - N/A   Unknown
2:00 PM 61.3 °F - 18.3 °F 19% 30.01 in - WNW 2.3 mph - N/A   Unknown
3:00 PM 64.4 °F - 23.0 °F 21% 29.98 in - South 2.3 mph - N/A   Unknown
4:00 PM 66.6 °F - 26.1 °F 22% 29.96 in - SW 4.6 mph - N/A   Unknown
5:00 PM 66.6 °F - 21.4 °F 18% 29.96 in - SSW 4.6 mph - N/A   Unknown
6:00 PM 60.8 °F - 30.6 °F 32% 29.99 in - NNE 8.1 mph - N/A   Unknown
7:00 PM 61.3 °F - 33.4 °F 35% 29.98 in - NNE 8.1 mph - N/A   Unknown
8:00 PM 58.8 °F - 34.3 °F 40% 29.98 in - NE 6.9 mph - N/A   Unknown
9:00 PM 57.6 °F - 34.9 °F 43% 29.97 in - NNE 8.1 mph - N/A   Unknown
10:00 PM 55.0 °F - 35.6 °F 48% 29.98 in - NNE 6.9 mph - N/A   Unknown
11:00 PM 53.1 °F - 34.7 °F 50% 29.99 in - NNE 8.1 mph - N/A   Unknown